Weather History for KTDZ - January, 2013

Change the Weather History Date:

Wednesday, January 23, 2013

  Actual Average (KTOL) Record (KTOL)
Temperature  
Mean Temperature 12 °F 25 °F  
Max Temperature 18 °F 33 °F 66 °F (1909)
Min Temperature 5 °F 18 °F -17 °F (1963)
Degree Days  
Heating Degree Days 54 40  
Month to date heating degree days 911  
Since 1 July heating degree days 3236  
Cooling Degree Days 0 0  
Month to date cooling degree days 0  
Year to date cooling degree days 0  
Moisture  
Dew Point 4 °F    
Average Humidity 69    
Maximum Humidity 88    
Minimum Humidity 45    
Precipitation  
Precipitation 0.01 in 0.06 in - ()
Month to date precipitation 1.56  
Year to date precipitation 1.56  
Snow  
Snow 0.00 in 0.40 in - ()
Month to date snowfall 8.5  
Since 1 July snowfall 18.0  
Snow Depth -    
Sea Level Pressure  
Sea Level Pressure 30.23 in    
Wind  
Wind Speed 6 mph (WSW)    
Max Wind Speed 14 mph    
Max Gust Speed -    
Visibility 8 miles    
Events Fog , Snow    
T = Trace of Precipitation, MM = Missing Value Source: NWS Daily Summary

Daily Weather History Graph

Daily Weather History Graph

Search for Another Location

Airport or City:

Trip Planner

Search our weather history database for the weather conditions in past years. The results will help you decide how hot, cold, wet, or windy it might be!

Date:

Astronomy

Jan. 23, 2013 Rise Set
Actual Time 7:53 AM EST 5:38 PM EST
Civil Twilight 7:23 AM EST 6:08 PM EST
Nautical Twilight 6:49 AM EST 6:42 PM EST
Astronomical Twilight 6:16 AM EST 7:15 PM EST
Moon 2:47 PM EST (1/23) 5:04 AM EST (1/23)
Length of Visible Light 10h 45m
Length of Day
9h 45m
Waxing Gibbous, 89% of the Moon is Illuminated
Jan 23
Waxing Gibbous
Jan 26
Full
Feb 3
Last Quarter
Feb 10
New
Feb 17
First Quarter

Hourly Weather History & Observations

Time (EST) Temp. Windchill Dew Point Humidity Pressure Visibility Wind Dir Wind Speed Gust Speed Precip Events Conditions
12:53 AM 6.1 °F -2.8 °F -2.9 °F 67% 30.34 in 10.0 mi SW 4.6 mph - N/A   Overcast
1:53 AM 5.0 °F -4.1 °F -2.9 °F 70% 30.34 in 10.0 mi West 4.6 mph - N/A   Mostly Cloudy
2:53 AM 7.0 °F -3.3 °F -2.0 °F 67% 30.34 in 10.0 mi West 5.8 mph - N/A   Overcast
3:49 AM 6.8 °F -3.5 °F -2.2 °F 67% 30.29 in 10.0 mi WNW 5.8 mph - N/A   Mostly Cloudy
3:53 AM 6.1 °F -2.8 °F -2.0 °F 69% 30.34 in 10.0 mi West 4.6 mph - N/A   Mostly Cloudy
4:28 AM 6.8 °F -2.0 °F -2.2 °F 67% 30.29 in 10.0 mi West 4.6 mph - N/A   Overcast
4:49 AM 6.8 °F -3.5 °F -2.2 °F 67% 30.29 in 10.0 mi West 5.8 mph - N/A   Overcast
4:53 AM 7.0 °F -4.5 °F -2.0 °F 67% 30.33 in 10.0 mi West 6.9 mph - N/A   Overcast
5:53 AM 7.0 °F -1.7 °F -2.0 °F 67% 30.33 in 10.0 mi West 4.6 mph - N/A   Overcast
6:53 AM 7.0 °F -3.3 °F -0.9 °F 70% 30.33 in 10.0 mi WSW 5.8 mph - N/A   Overcast
7:53 AM 8.1 °F -3.2 °F -0.0 °F 70% 30.33 in 10.0 mi WSW 6.9 mph - N/A   Overcast
8:53 AM 9.0 °F -0.9 °F 1.0 °F 70% 30.32 in 10.0 mi WSW 5.8 mph - N/A   Overcast
9:53 AM 12.0 °F -0.4 °F 1.9 °F 64% 30.31 in 10.0 mi SW 9.2 mph - N/A   Overcast
10:53 AM 14.0 °F 2.0 °F 3.9 °F 64% 30.31 in 10.0 mi WSW 9.2 mph - N/A   Overcast
11:53 AM 16.0 °F 2.9 °F 3.9 °F 59% 30.29 in 10.0 mi SW 11.5 mph - N/A   Overcast
12:53 PM 17.1 °F 3.0 °F 3.9 °F 56% 30.24 in 10.0 mi SW 13.8 mph - N/A   Overcast
1:53 PM 18.0 °F 4.2 °F 3.9 °F 54% 30.21 in 10.0 mi West 13.8 mph - N/A   Overcast
2:53 PM 18.0 °F 4.2 °F -0.0 °F 45% 30.19 in 10.0 mi SW 13.8 mph - N/A   Overcast
4:53 PM 18.0 °F 5.4 °F 3.0 °F 52% 30.16 in 10.0 mi WSW 11.5 mph - N/A   Overcast
5:53 PM 16.0 °F 5.3 °F 5.0 °F 62% 30.14 in 10.0 mi SW 8.1 mph - N/A   Mostly Cloudy
6:53 PM 16.0 °F 6.3 °F 7.0 °F 68% 30.15 in 10.0 mi SW 6.9 mph - N/A   Overcast
7:53 PM 17.1 °F 8.7 °F 8.1 °F 68% 30.14 in 9.0 mi WSW 5.8 mph - N/A   Overcast
8:53 PM 17.1 °F 7.6 °F 9.0 °F 71% 30.14 in 7.0 mi WSW 6.9 mph - 0.00 in   Overcast
9:53 PM 16.0 °F 7.4 °F 10.9 °F 81% 30.12 in 4.0 mi SW 5.8 mph - N/A   Haze
10:36 PM 15.8 °F - 12.2 °F 86% 30.08 in 2.5 mi Calm Calm - 0.00 in Snow Light Snow
10:53 PM 16.0 °F - 12.9 °F 88% 30.11 in 1.2 mi Calm Calm - 0.00 in Snow Light Snow
11:08 PM 15.8 °F - 12.2 °F 86% 30.08 in 0.8 mi Calm Calm - 0.00 in Snow Light Snow
11:15 PM 15.8 °F - 12.2 °F 86% 30.08 in 0.5 mi Calm Calm - 0.00 in Fog , Snow Snow
11:28 PM 15.8 °F - 12.2 °F 86% 30.08 in 1.0 mi Calm Calm - 0.01 in Snow Light Snow
11:53 PM 17.1 °F - 12.9 °F 84% 30.12 in 1.0 mi Calm Calm - 0.01 in Snow Light Snow